Вернуться в каталог

STARLINK-34812

АктивенСвязьVLEO
NORAD 66026·PAYLOAD·🇺🇸 United States

Запущен Oct 16, 2025 с Cape Canaveral Space Force Station

Loading…

Ближайшие Пролёты (ближайшие 24 часа)

TLE

СвежийSource: CelesTrak SupGP

Эпоха: Sep 14, 2026, 22:49 UTC

1 66026C 25232X   26257.95118056  .00045024  00000+0  13304-2 0  2575
2 66026  53.1585 301.6122 0001529  79.8801  54.1654 15.34363642    17

Отслеживайте STARLINK-34812 в реальном времени с AllMySat

Download on the App Store